This is the latest recevied weather packets stored in our database for station/object KI5PFS. If no packets are shown the sender has not sent any weather packets the latest 10 day(s).
| Time | Temp. | Humidity | Pressure | Rain* | Wind** | Luminosity | Snow |
|---|---|---|---|---|---|---|---|
| 1777505403 | 17.22° C | 77% | 1009.7 hPa | 0 mm | - | - | - |
| 1777504804 | 16.11° C | 77% | 1009.6 hPa | 0 mm | - | - | - |
| 1777504203 | 17.22° C | 76% | 1010.1 hPa | 0 mm | - | - | - |
| 1777503604 | 17.22° C | 76% | 1010.3 hPa | 0 mm | - | - | - |
| 1777503003 | 17.22° C | 77% | 1010.2 hPa | 0 mm | - | - | - |
| 1777502404 | 17.22° C | 76% | 1010.3 hPa | 0 mm | - | - | - |
| 1777501803 | 17.22° C | 75% | 1010.5 hPa | 0 mm | - | - | - |
| 1777501204 | 17.22° C | 75% | 1010.3 hPa | 0 mm | - | - | - |
| 1777500603 | 17.22° C | 75% | 1009.7 hPa | 0 mm | - | - | - |
| 1777500003 | 17.78° C | 75% | 1009.2 hPa | 0 mm | - | - | - |
| 1777499403 | 17.78° C | 75% | 1009.1 hPa | 0 mm | - | - | - |
| 1777498803 | 17.78° C | 76% | 1009.4 hPa | 0 mm | - | - | - |
| 1777498203 | 17.22° C | 76% | 1009.4 hPa | 0 mm | - | - | - |
| 1777497604 | 17.78° C | 75% | 1009.8 hPa | 0 mm | - | - | - |
| 1777497004 | 17.78° C | 74% | 1009.6 hPa | 0 mm | - | - | - |
| 1777496403 | 17.78° C | 74% | 1009.8 hPa | 0 mm | - | - | - |
| 1777495803 | 17.78° C | 76% | 1009.7 hPa | 0 mm | - | - | - |
| 1777495204 | 17.78° C | 75% | 1010.1 hPa | 0 mm | - | - | - |
| 1777494604 | 17.78° C | 76% | 1010 hPa | 0 mm | - | - | - |
| 1777494003 | 17.78° C | 81% | 1010.2 hPa | 0 mm | - | - | - |
| 1777493403 | 17.22° C | 82% | 1010.9 hPa | 0 mm | - | - | - |
| 1777492803 | 17.22° C | 83% | 1011.3 hPa | 0 mm | - | - | - |
| 1777492204 | 17.22° C | 81% | 1013.5 hPa | 0 mm | - | - | - |
| 1777491603 | 17.22° C | 80% | 1011.9 hPa | 0 mm | - | - | - |
| 1777491003 | 17.22° C | 81% | 1011.5 hPa | 0 mm | - | - | - |
* Rain latest hour (hover to see other rain measurements)
** Current wind speed in m/s (hover to see current wind gust speed)